Location: Iesi
(43.5167°N, 13.2333°E)
Time: 02:10:10
(UTC+00:00)

Cosmos 614 Rocket - Pass Details

Date: 08 August 2020
Orbit: 733 x 764 km, 74.1° (Epoch: 19 September)

Event Time Altitude Azimuth Distance (km) Brightness Sun altitude
Rises 19:33:41 0° 197° (SSW) 3,172 7.0 -12.4°
Reaches altitude 10° 19:36:01 10° 197° (SSW) 2,258 6.2 -12.8°
Maximum altitude 19:41:09 85° 109° (ESE) 761 3.9 -13.5°
Drops below altitude 10° 19:46:21 10° 21° (NNE) 2,294 6.7 -14.2°
Sets 19:48:45 0° 21° (NNE) 3,228 7.5 -14.6°
